sat.trackr.live / text

‹ back to catalog

STARLINK-34457

NORAD 64368 · 2025-126AA

PAYLOAD ACTIVE UNKNOWN

§ Identity

Operator
Country
US
Launch date
2025-06-13
Launch site
AFWTR
Launch vehicle
Mass (kg)
RCS (m²)

Purposes: comms

External: N2YO · Heavens-Above · Gunter

§ Orbital elements

Epoch: 2026-05-25T03:49:37.648128Z

Period
96.11 min
Inclination
70.0004°
Eccentricity
0.0003884
Mean motion
14.98336920 rev/d
Perigee alt
569.3 km
Apogee alt
574.7 km
Semi-major
6,950.2 km
B*
3.4508e-4
RAAN
201.7505°
Arg perigee
267.1506°
Mean anomaly
92.9208°
Rev number
5,213

§ Raw data

STARLINK-344571 64368U 25126AA  26145.15946352  .00004028  00000+0  34508-3 0  99922 64368  70.0004 201.7505 0003884 267.1506  92.9208 14.98336920 52136

JSON: /api/v1/satellites/64368 · /tle

For live sub-satellite position, see the globe view (requires WebGL).

§ Visibility from observer

Set your observer location to see the next 7 days of passes ≥ 10°. The values pass through the URL so the page stays shareable.

No JS? Fill the form by hand. The geolocation button needs JavaScript.